Overview Statistics Trail Chart Weather Telemetry Raw packets
 

This is the latest recevied weather packets stored in our database for station/object ZL1CTS-13. If no packets are shown the sender has not sent any weather packets the latest 10 day(s).

<< 46 47 48 49 50 51 52 >>
Time Temp. Humidity Pressure Rain* Wind** Luminosity Snow
1788410104 15° C 98% 1005.9 hPa 0.25 mm - - -
1788409804 15° C 98% 1006 hPa 0.25 mm - - -
1788409803 15° C 98% 1006 hPa 0.25 mm - - -
1788409504 15° C 98% 1005.9 hPa 0 mm - - -
1788409204 15.56° C 99% 1006 hPa 0 mm - - -
1788408904 16.11° C 98% 1006 hPa 0 mm - - -
1788408904 16.11° C 98% 1006 hPa 0 mm - - -
1788408604 16.67° C 98% 1006 hPa 0 mm - - -
1788408304 16.11° C 98% 1006.1 hPa 0 mm - - -
1788408004 16.11° C 98% 1006.2 hPa 0 mm - - -
1788408003 16.11° C 98% 1006.2 hPa 0 mm - - -
1788407704 16.11° C 98% 1006.2 hPa 0.25 mm - - -
1788407404 16.11° C 99% 1006.3 hPa 0.25 mm - - -
1788407104 15° C 99% 1006.5 hPa 1.02 mm - - -
1788407103 15° C 99% 1006.5 hPa 1.02 mm - - -
1788406803 14.44° C 99% 1006.6 hPa 2.03 mm - - -
1788406504 14.44° C 99% 1006.7 hPa 2.79 mm - - -
1788406203 15° C 99% 1006.6 hPa 3.81 mm - - -
1788406203 15° C 99% 1006.6 hPa 3.81 mm - - -
1788405904 15° C 99% 1006.7 hPa 3.81 mm - - -
1788405604 14.44° C 98% 1006.8 hPa 4.06 mm - - -
1788405305 14.44° C 98% 1006.8 hPa 4.06 mm - - -
1788405304 14.44° C 98% 1006.8 hPa 4.06 mm - - -
1788405004 13.33° C 99% 1006.9 hPa 4.06 mm - - -
1788404704 13.33° C 99% 1007 hPa 4.06 mm - - -

* Rain latest hour (hover to see other rain measurements)
** Current wind speed in m/s (hover to see current wind gust speed)